^^
Station Historical Data
 
Daily Summary for February 07, 2016 Units:  English    Metric   Both
« Previous Day
Next Day »
Daily Weekly Monthly Yearly Custom
  Current: High: Low: Average:
Temperature: 27.1 °F 30.0 °F 27.1 °F 28.6 °F
Dew Point: 0.6 °F 0.7 °F -2.4 °F -1.4 °F
Humidity: 31% 31% 24% 27%
Wind Speed: 0.3mph 0.9mph 0.1mph 0.4mph
Wind Gust: 0.7mph 1.6mph - -
WindNW - - WNW
Pressure: 30.17 in 30.23 in 30.17 in -
Precipitation: 0.00 in      
Historical Graphs
 
 
Tabular Data for February 07, 2016
Time Temperature Dew Point Pressure Wind Wind Speed Wind Gust Humidity Rainfall Rate (Hourly)
00:04 30.0 °F -1.5 °F 30.23 in NW 0.2 mph 0.7 mph 25% 0.00 in
00:09 30.0 °F -2.4 °F 30.23 in Calm     24% 0.00 in
00:14 30.0 °F -1.5 °F 30.23 in NW 0.2 mph 0.7 mph 25% 0.00 in
00:19 29.8 °F -1.7 °F 30.23 in WNW 0.6 mph 1.6 mph 25% 0.00 in
00:24 29.8 °F -1.7 °F 30.22 in WNW 0.7 mph 1.6 mph 25% 0.00 in
00:29 29.6 °F -1.8 °F 30.22 in WNW 0.3 mph 1.6 mph 25% 0.00 in
00:34 29.6 °F -1.8 °F 30.22 in Calm     25% 0.00 in
00:39 29.6 °F -1.8 °F 30.22 in West 0.1 mph 0.7 mph 25% 0.00 in
00:44 29.6 °F -1.8 °F 30.22 in West 0.1 mph 0.7 mph 25% 0.00 in
00:49 29.6 °F -1.8 °F 30.22 in Calm     25% 0.00 in
00:54 29.6 °F -1.8 °F 30.22 in Calm     25% 0.00 in
00:59 29.6 °F -1.8 °F 30.22 in NNW 0.2 mph 0.7 mph 25% 0.00 in
01:04 29.6 °F -1.8 °F 30.22 in NNW 0.2 mph 0.7 mph 25% 0.00 in
01:09 29.5 °F -2.0 °F 30.22 in Calm     25% 0.00 in
01:14 29.5 °F -2.0 °F 30.22 in North 0.2 mph 0.7 mph 25% 0.00 in
01:19 29.3 °F -2.1 °F 30.22 in North 0.4 mph 0.7 mph 25% 0.00 in
01:24 29.1 °F -2.3 °F 30.22 in NNW 0.4 mph 0.7 mph 25% 0.00 in
01:29 29.1 °F -2.3 °F 30.22 in WNW 0.2 mph 0.7 mph 25% 0.00 in
01:34 28.9 °F -2.4 °F 30.22 in West 0.2 mph 0.7 mph 25% 0.00 in
01:39 28.9 °F -1.6 °F 30.22 in NW 0.2 mph 0.7 mph 26% 0.00 in
01:45 28.9 °F -1.6 °F 30.22 in NW 0.5 mph 0.7 mph 26% 0.00 in
01:50 28.7 °F -1.8 °F 30.21 in NW 0.8 mph 1.6 mph 26% 0.00 in
01:55 28.7 °F -1.8 °F 30.21 in NW 0.6 mph 1.6 mph 26% 0.00 in
02:00 28.7 °F -1.8 °F 30.21 in WNW 0.4 mph 0.7 mph 26% 0.00 in
02:05 28.7 °F -1.8 °F 30.21 in NW 0.6 mph 0.7 mph 26% 0.00 in
02:10 28.7 °F -1.0 °F 30.21 in NW 0.5 mph 0.7 mph 27% 0.00 in
02:15 28.6 °F -1.1 °F 30.21 in NW 0.3 mph 0.7 mph 27% 0.00 in
02:20 28.4 °F -1.3 °F 30.21 in WNW 0.4 mph 0.7 mph 27% 0.00 in
02:25 28.4 °F -1.3 °F 30.22 in WSW 0.6 mph 1.6 mph 27% 0.00 in
02:30 28.2 °F -1.4 °F 30.22 in WSW 0.9 mph 1.6 mph 27% 0.00 in
02:35 28.2 °F -0.7 °F 30.21 in WNW 0.9 mph 1.6 mph 28% 0.00 in
02:40 28.2 °F -1.4 °F 30.22 in NW 0.6 mph 0.7 mph 27% 0.00 in
02:45 28.0 °F -0.8 °F 30.22 in NW 0.4 mph 0.7 mph 28% 0.00 in
02:55 28.2 °F -0.7 °F 30.21 in NW 0.6 mph 0.7 mph 28% 0.00 in
03:00 28.2 °F -1.4 °F 30.21 in NW 0.6 mph 0.7 mph 27% 0.00 in
03:05 28.2 °F -1.4 °F 30.21 in NW 0.7 mph 0.7 mph 27% 0.00 in
03:10 28.2 °F -1.4 °F 30.21 in NW 0.6 mph 1.6 mph 27% 0.00 in
03:15 28.4 °F -1.3 °F 30.21 in WNW 0.3 mph 1.6 mph 27% 0.00 in
03:20 28.2 °F -1.4 °F 30.21 in Calm   0.7 mph 27% 0.00 in
03:25 28.2 °F -1.4 °F 30.20 in West 0.2 mph 0.7 mph 27% 0.00 in
03:30 28.2 °F -1.4 °F 30.20 in West 0.5 mph 0.7 mph 27% 0.00 in
03:35 28.2 °F -1.4 °F 30.20 in West 0.6 mph 0.7 mph 27% 0.00 in
03:40 28.2 °F -1.4 °F 30.20 in West 0.5 mph 0.7 mph 27% 0.00 in
03:45 28.2 °F -1.4 °F 30.20 in West 0.2 mph 0.7 mph 27% 0.00 in
03:50 28.2 °F -1.4 °F 30.20 in Calm     27% 0.00 in
03:55 28.2 °F -1.4 °F 30.20 in Calm     27% 0.00 in
04:00 28.2 °F -1.4 °F 30.19 in NW 0.3 mph 0.7 mph 27% 0.00 in
04:05 28.2 °F -1.4 °F 30.19 in NW 0.6 mph 0.7 mph 27% 0.00 in
04:10 28.0 °F -1.6 °F 30.19 in NW 0.7 mph 1.6 mph 27% 0.00 in
04:15 28.0 °F -1.6 °F 30.19 in NW 0.7 mph 1.6 mph 27% 0.00 in
04:20 27.8 °F -1.7 °F 30.19 in WNW 0.5 mph 0.7 mph 27% 0.00 in
04:25 28.2 °F -1.4 °F 30.19 in West 0.2 mph 0.7 mph 27% 0.00 in
04:30 28.2 °F -0.7 °F 30.19 in Calm     28% 0.00 in
04:35 27.8 °F -1.0 °F 30.19 in West 0.3 mph 0.7 mph 28% 0.00 in
04:40 27.8 °F -1.0 °F 30.18 in WNW 0.5 mph 0.7 mph 28% 0.00 in
04:45 27.8 °F -1.0 °F 30.19 in NW 0.2 mph 0.7 mph 28% 0.00 in
04:50 27.8 °F -1.0 °F 30.18 in Calm     28% 0.00 in
04:55 27.7 °F 0.3 °F 30.18 in Calm     30% 0.00 in
05:00 27.3 °F 0.7 °F 30.18 in NW 0.2 mph 0.7 mph 31% 0.00 in
05:05 27.1 °F 0.6 °F 30.17 in NW 0.5 mph 0.7 mph 31% 0.00 in
05:10 27.1 °F 0.6 °F 30.17 in NW 0.3 mph 0.7 mph 31% 0.00 in
Export, Pennsylvania, USA
Compliments of Weather Underground